Location: Burleson Fire Department Station 2
(32.5391°N, 97.3075°W)
Time: 22:31:55
(UTC+00:00)

BlueWalker 3 - Pass Details

Date: 21 October 2024
Orbit: 470 x 482 km, 53.2° (Epoch: 03 November)

Event Time Altitude Azimuth Distance (km) Brightness Sun altitude
Exits shadow 11:53:49 - 327° (NNW) 2,153 4.8 -10.0°
Reaches altitude 10° 11:55:11 10° 334° (NNW) 1,630 4.2 -9.8°
Maximum altitude 11:58:36 35° 42° (NE) 771 3.2 -9.0°
Drops below altitude 10° 12:02:00 10° 110° (ESE) 1,627 6.1 -8.3°
Sets 12:04:16 0° 119° (ESE) 2,503 7.0 -7.9°
